Location: Dammartin
(48.9032°N, 1.6195°E)
Time: 11:55:16
(UTC+00:00)

SKYMED 2 - Pass Details

Date: 03 February 2023
Orbit: 621 x 623 km, 97.9° (Epoch: 26 March)

Event Time Altitude Azimuth Distance (km) Brightness Sun altitude
Rises 17:51:38 0° 16° (NNE) 2,921 6.7 -9.8°
Reaches altitude 10° 17:53:52 10° 20° (NNE) 2,009 5.9 -10.2°
Maximum altitude 17:58:12 61° 101° (E) 715 3.6 -10.8°
Drops below altitude 10° 18:02:29 10° 182° (S) 1,991 6.3 -11.5°
Sets 18:04:41 0° 186° (S) 2,892 7.2 -11.9°
